STARLINK-1287 (45371 NORAD) Tracking and Keplerian Element Data

This shows tracking and keplerian element data for the satellite.

Feedback or suggestion? Click here.




ElementValue
Catalog45371
NameSTARLINK-1287
Epoch Orbit175
Epoch Day193.91667824
Epoch Year2020
RAAN84.7252
Inclination52.9992
Eccentricity0.0001538
Argument of Perigee90.4152
Mean Anonmoly33.5453
Mean Motion15.05588469
Decay Rate-0.00028745
L11 45371U 20019M 20193.91667824 -.00028745 00000-0 -19612-2 0 9999
L22 45371 52.9992 84.7252 0001538 90.4152 33.5453 15.05588469 1751

Live tracking and technical data element details for STARLINK-1287 (NORAD 45371). STARLINK-1287 can be tracked NOW for your location showing map with azimuth and elevation plus other details from your city location.

Track the satellite on the map from your city or location and see movement details for azimuth, elevation, latitude, longitude, range, height, and movement on the map or in text.







IsCatalogInMostPopularTable: catalog: 45371, numindb: 22
Update: records affected: 1



GetName: 45371 STARLINK-1287

Hit Count: updated at: Mon, 13 Jul 2020 04:36:49 GMT